Tracking 23764 objects as of 17-Oct-2021
HD Live streaming from Space Station
objects crossing your sky now

IRIDIUM 33 DEB

Track IRIDIUM 33 DEB now!
10-day predictions


NORAD ID: 38228
Int'l Code: 1997-051ZC
Perigee: 771.9 km
Apogee: 869.5 km
Inclination: 86.3 °
Period: 101.2 minutes
Semi major axis: 7191 km
RCS: 0.0068 m2 (small)
Launch date: September 14, 1997
Source: United States (US)
Launch site: TYURATAM MISSILE AND SPACE COMPLEX (TTMTR)

Note: This is SATELLITE DEBRIS
aabbcc
Your satellite tracking list
Your tracking list is empty




NASA's NSSDC Master Catalog

Two Line Element Set (TLE):
1 38228U 97051ZC  21288.89919282  .00000210  00000-0  81935-4 0  9997
2 38228  86.2962 331.3488 0067862  28.5369 148.0300 14.23485174631511
Source of the keplerian elements: AFSPC